[Iaude] MPEC B18: 2024 BA [a=1.43,e=0.45,i=9.1,H=26.2]

mpec at marsden.cfa.harvard.edu mpec at marsden.cfa.harvard.edu
Wed Jan 17 02:58:19 EST 2024


M.P.E.C. 2024-B18                              Issued 2024 January 17, 07:56 UT

     The Minor Planet Electronic Circulars contain information on unusual
         minor planets, routine data on comets and natural satellites,
         and occasional editorial announcements.  They are published
    on behalf of Division F of the International Astronomical Union by the
          Minor Planet Center, Smithsonian Astrophysical Observatory,
                          Cambridge, MA 02138, U.S.A.
			  
             Prepared using the Tamkin Foundation Computer Network

                              MPC at CFA.HARVARD.EDU
            URL https://www.minorplanetcenter.net/    ISSN 1523-6714

                                    2024 BA                                     


Observations:
     K24B00A*1C2024 01 16.31133808 23 32.413-12 08 22.81         20.63GVEB018G96
     K24B00A 1C2024 01 16.31650308 23 29.872-12 07 55.78         19.97GVEB018G96
     K24B00A 1C2024 01 16.32166008 23 27.359-12 07 28.38         20.67GVEB018G96
     K24B00A 1C2024 01 16.32682108 23 24.907-12 07 01.63         20.75GVEB018G96
     K24B00A KC2024 01 16.42794308 22 37.117-11 58 11.96         20.68GVEB018V06
     K24B00A KC2024 01 16.42965608 22 36.343-11 58 02.89         20.22GVEB018V06
     K24B00A KC2024 01 16.43137108 22 35.569-11 57 53.89         20.83GVEB018V06
     K24B00A KC2024 01 16.43308808 22 34.756-11 57 45.40         20.19GVEB018V06
     K24B00A  C2024 01 17.29816108 17 43.922-10 52 50.38         20.8 GVEB018H01
     K24B00A  C2024 01 17.30170008 17 42.640-10 52 36.37         20.5 GVEB018H01
     K24B00A  C2024 01 17.31603508 17 37.427-10 51 39.42         21.8 GVEB018H01
     K24B00A  C2024 01 17.32028508 17 35.875-10 51 22.43         21.2 GVEB018H01

Observer details:
G96 Mt. Lemmon Survey.  Observer J. K. Hogan.  Measurers T. Beuden, V. F.
    Carvajal, D. Fay, J. B. Fazekas, D. C. Fuls, A. R. Gibbs, A. D. Grauer, H.
    Groeller, J. K. Hogan, R. A. Kowalski, S. M. Larson, G. J. Leonard, D.
    Rankin, R. L. Seaman, F. C. Shelly, K. W. Wierzchos.  1.5-m reflector +
    10K CCD.
H01 Magdalena Ridge Observatory, Socorro.  Observers W. H. Ryan, E. V. Ryan.
    Measurer W. H. Ryan.  2.4-m f/8.9 Ritchey-Chretien + CCD.
V06 Catalina Sky Survey-Kuiper.  Observer G. J. Leonard.  Measurers T. Beuden,
    V. F. Carvajal, D. Fay, J. B. Fazekas, D. C. Fuls, A. R. Gibbs, A. D.
    Grauer, H. Groeller, J. K. Hogan, R. A. Kowalski, S. M. Larson, G. J.
    Leonard, D. Rankin, R. L. Seaman, F. C. Shelly, K. W. Wierzchos.  1.55-m
    reflector + 1K CCD.

Orbital elements:
2024 BA                                                  Earth MOID = 0.0060 AU
Epoch 2023 Sept. 13.0 TT = JDT 2460200.5                MPC                     
M 318.16510              (2000.0)            P               Q                  
n   0.57712294     Peri.  113.50265     +0.73510119     -0.66093461             
a   1.4287530      Node   288.23725     +0.54948332     +0.71127257             
e   0.4472062      Incl.    9.14616     +0.39710746     +0.23928386             
P   1.71           H   26.24          G   0.15           U   8                  
Residuals in seconds of arc
240116 G96  0.3+  0.0     240116 V06  0.0   0.0     240117 H01  0.0   0.0
240116 G96  0.2-  0.1-    240116 V06  0.1+  0.1+    240117 H01  0.1+  0.0
240116 G96  0.4-  0.2+    240116 V06  0.2+  0.2+    240117 H01  0.0   0.0
240116 G96  0.3+  0.1-    240116 V06  0.3-  0.3-    240117 H01  0.1-  0.1+

Ephemeris:
2024 BA                  a,e,i = 1.43, 0.45, 9                   q = 0.7898
Date    TT    R. A. (2000) Decl.     Delta      r    Elong.  Phase     V
2023 12 18    19 30 35.4 -00 23 25   0.1781  0.8450    35.3   137.7    28.7
...
2024 01 02    19 17 58.9 -02 23 37   0.06288 0.9253    22.0   156.6    30.0
...
2024 01 10    15 44 59.4 -36 28 14   0.01044 0.9766    48.7   130.8    22.1
...
2024 01 16    08 25 46.0 -12 34 45   0.04082 1.0174   145.0    33.7    20.7
2024 01 17    08 19 16.9 -11 11 25   0.04792 1.0243   147.2    31.4    21.0
2024 01 18    08 14 30.4 -10 08 10   0.05508 1.0313   148.8    29.6    21.3
...
2024 01 24    08 00 48.1 -06 45 37   0.09904 1.0737   153.3    24.3    22.5
...
2024 02 01    07 55 14.4 -04 35 15   0.1603  1.1310   153.5    22.8    23.6
...
2024 02 16    07 56 04.1 -01 49 20   0.2865  1.2383   147.2    25.6    25.2

A. U. Tomatic                (C) Copyright 2024 MPC           M.P.E.C. 2024-B18





More information about the Iaude mailing list